Flag for Germany Weather past 2 weeks in Leimen, Baden-Württemberg, Germany

Now
77 °F

Sunny.


Feels Like: 78 °F
Forecast: 60 / 90 °F
Wind: 2 mph from North

Location: Baden Wurttemberg - Neuostheim

Current Time: Aug 2, 2015 at 12:25:56 PM

Latest Report: Aug 2, 2015 at 11:50 AM


Visibility: 10 mi

Pressure: 30.12 "Hg

Humidity: 42%

Dew point: 52 °F

Location of LeimenLocation

Historic Weather in Leimen — Graph

°F

Leimen temperature yesterday

Maximum temperature yesterday: 79 °F (at 4:20 PM)
Minimum temperature yesterday: 59 °F (at 6:50 AM)
Average temperature yesterday: 71 °F

Past Weeks' High & Low Weather Summary

 TemperatureHumidityPressure
High93 °F (Jul 22, 3:50 PM)100% (Jul 19, 2:50 PM)30.12 "Hg (Jul 19, 2:50 PM)
Low50 °F (Jul 30, 5:50 AM)23% (Jul 30, 5:50 PM)29.65 "Hg (Jul 24, 7:50 PM)
Average73 °F54%29.91 "Hg
* Reported Jul 18 10:20 AM — Aug 2 10:50 AM, Leimen, Weather by CustomWeather, © 2015

Note: Actual official high and low records may vary slightly from our data, if they occured in-between our weather recording intervals... More about our weather records

Advertising

Leimen weather history for previous 24 hours

 ConditionsComfort  
Time TempWeatherWind HumidityBarometerVisibility
10:50 AM
Sun, Aug 2
73 °FSunny.2 mph50%30.12 "Hg10 mi
10:20 AM72 °FSunny.3 mph50%30.12 "Hg10 mi
9:50 AM70 °FSunny.3 mph57%30.12 "Hg10 mi
9:20 AM70 °FSunny.2 mph64%30.12 "Hg10 mi
8:50 AM66 °FSunny.2 mph73%30.09 "Hg10 mi
8:20 AM64 °FSunny.3 mph78%30.09 "Hg10 mi
7:50 AM63 °FSunny.3 mph83%30.09 "Hg10 mi
10:50 PM
Sat, Aug 1
70 °FClear.3 mph60%30.01 "Hg10 mi
7:50 PM77 °FPassing clouds.6 mph42%29.95 "HgN/A
7:20 PM77 °FPassing clouds.7 mph39%29.95 "HgN/A
6:50 PM77 °FSunny.7 mph39%29.95 "Hg10 mi
6:20 PM79 °FPassing clouds.7 mph37%29.95 "HgN/A
5:50 PM77 °FPassing clouds.6 mph36%29.95 "HgN/A
5:20 PM77 °FSunny.5 mph34%29.95 "Hg10 mi
4:50 PM77 °FPassing clouds.5 mph32%29.95 "HgN/A
4:20 PM79 °FPassing clouds.5 mph30%29.95 "HgN/A
3:50 PM77 °FPassing clouds.6 mph30%29.95 "HgN/A
3:20 PM77 °FPassing clouds.7 mph30%29.95 "HgN/A
2:50 PM77 °FSunny.6 mph32%29.95 "Hg10 mi
2:20 PM75 °FSunny.5 mph34%29.95 "Hg10 mi
1:50 PM73 °FPassing clouds.6 mph38%29.95 "HgN/A
1:20 PM72 °FPassing clouds.9 mph41%29.95 "HgN/A
12:50 PM73 °FSunny.6 mph41%29.98 "Hg10 mi
12:20 PM72 °FPassing clouds.5 mph44%29.98 "HgN/A
Weather by CustomWeather, © 2015

See weather overviewHow to use our weather pages